www.pogodaiklimat.ru

ПОГОДА в Секстон Маунтин Пасс, OR

  • Прогноз погоды в Секстон Маунтин Пасс
  • Монитор погоды в Секстон Маунтин Пасс
  • Климат в Секстон Маунтин Пасс

АРХИВ ПОГОДЫ в Секстон Маунтин Пасс

Время (UTC), дата Ветер
(напр.,м/с)
 
Видим.   Явления Облачность Т
(С)
Тd
(С)
f
(%)
Тe
(С)
Тes
(С)
Комфортность

P
(гПа)

Po
(гПа)
Тmin
(С)
Tmax
(С)
R
(мм)
SD
(см)
10:56 18.06 С  16 км    ясно  +12.8  +10.0  83  +11  +11    1018.6  888.7  +12.2  +15.6     
11:56 18.06 С  16 км    ясно  +13.9  +10.0  77  +12  +12    1018.9  889.0         
12:56 18.06 С  16 км    ясно  +14.4  +10.0  75  +12  +12    1019.3  889.3         
13:56 18.06 С  16 км    ясно  +13.9  +10.6  80  +13  +13    1019.8  889.3         
14:56 18.06 С  16 км    ясно  +15.6  +11.1  75  +15  +18    1019.9  889.3         
15:56 18.06 С  16 км    ясно  +16.7  +11.7  72  +16  +22    1020.1  889.6         
16:56 18.06 нст  16 км    ясно  +18.9  +12.2  65  +21  +33  комфорт  1019.7  889.3  +12.8  +18.9     
17:56 18.06 нст  16 км    ясно  +20.6  +11.7  57  +23  +40  комфорт  1019.5  889.6         
18:56 18.06 нст  16 км    ясно  +22.2  +11.7  51  +24  +41  комфорт  1019.2  889.3         
19:56 18.06 нст  16 км    ясно  +22.2  +9.4  44  +24  +45  комфорт  1019.1  889.3         
20:56 18.06 нст  16 км    ясно  +22.8  +7.8  38  +24  +45  комфорт  1018.8  889.0         
21:56 18.06 СЗ  16 км    ясно  +22.8  +5.6  33  +23  +39  комфорт  1018.8  888.7         
22:56 18.06 нст  1
{8} 
16 км    ясно  +22.2  +7.2  38  +23  +37  комфорт  1018.6  888.7  +18.9  +23.3     
23:56 18.06 З  16 км    ясно  +21.1  +6.1  38  +22  +32  комфорт  1018.3  888.4         
00:56 19.06 нст  16 км    ясно  +20.0  +5.6  39  +21  +25  комфорт  1018.5  888.4         
01:56 19.06 нст  16 км    ясно  +17.8  +5.0  43  +18  +20    1019.1  888.4         
02:56 19.06 С  16 км    ясно  +15.6  +6.1  53  +15  +15    1019.4  888.7         
03:56 19.06 нст  16 км    ясно  +15.0  +8.3  64  +14  +14    1019.5  888.7         
04:56 19.06 нст  16 км    ясно  +13.9  +9.4  74  +13  +13    1019.5  889.0  +13.9  +22.2     
05:56 19.06 С  16 км    ясно  +12.8  +9.4  80  +10  +10    1019.4  889.0         
06:56 19.06 С  5
{8} 
16 км    ясно  +12.2  +8.3  77  +10  +10    1019.0  888.7         
07:56 19.06 С  16 км    ясно  +11.7  +8.3  80  +10  +10    1018.7  888.7         
08:56 19.06 С  16 км    ясно  +10.6  +8.3  86  +8  +8    1018.8  888.4         
09:56 19.06 С  16 км    ясно  +10.0  +8.3  89  +6  +6    1018.7  888.4         
10:56 19.06 СЗ  4 км  дымка  8/8 30 м  +8.9  +8.3  96  +5  +5    1019.1  888.4  +8.9  +13.9     
10:59 19.06 СЗ  2 км  дымка  8/8 30 м  +8.9  +8.3  96  +5  +5      888.4         
11:09 19.06 СЗ  3 км  дымка  8/8 30 м  +8.9  +7.8  93  +5  +5      888.4         
11:25 19.06 СЗ  2 км  слабый дождь, дымка  ?/?  +8.3  +7.8  97  +4  +4      888.4         
11:32 19.06 СЗ  1 км  слабый дождь, дымка  ?/?  +8.3  +7.8  97  +4  +4      888.4         
11:48 19.06 С  н/о  туман  ?/?  +8.3  +7.8  97  +4  +4      888.4         
11:56 19.06 С  400 м  туман  ?/?  +8.3  +7.8  97  +4  +4    1019.3  888.4         
12:02 19.06 С  2 км  дымка  ?/?  +8.9  +7.8  93  +5  +5      888.4         
12:56 19.06 С  4 км  дымка  8/8 30 м  +8.3  +7.2  93  +4  +4    1019.9  888.7         
13:02 19.06 С  2 км  дымка  10/10 30 м  +7.8  +7.2  96  +4  +4      888.7         
13:10 19.06 С  400 м  туман  ?/?  +8.3  +7.2  93  +4  +4      888.7         
13:32 19.06 С  800 м  туман  ?/?  +8.3  +7.8  97  +4  +4      888.7         
13:39 19.06 С  3 км  дымка  8/8 30 м  +8.9  +7.8  93  +5  +5      888.7         
13:46 19.06 С  6 км  дымка  8/8 30 м  +8.3  +7.8  97  +4  +4      888.7         
13:56 19.06 С  2 км  дымка  8/8 30 м  +8.9  +7.8  93  +6  +6    1020.3  888.7         
14:20 19.06 С  11 км    8/8 30 м  +9.4  +7.8  90  +6  +6      888.7         
14:56 19.06 С  4
{9} 
16 км    10/10 60 м  +9.4  +7.8  90  +6  +6    1020.9  889.0         
15:36 19.06 С  16 км    5/5 30 м  +10.6  +7.8  83  +8  +10      889.0         
15:56 19.06 С  16 км    ясно  +11.7  +8.3  80  +10  +14    1020.8  889.0         
16:56 19.06 С  16 км    ясно  +13.9  +8.3  69  +12  +20    1020.7  889.3  +7.8  +13.9     
17:56 19.06 нст  16 км  слабый дождь  ясно  +16.1  +8.3  60  +16  +33  опасность
простуды 
1020.5  889.0         
18:56 19.06 нст  16 км    ясно  +17.8  +5.6  45  +19  +38  опасность
простуды 
1019.9  889.0         
19:56 19.06 нст  16 км    ясно  +19.4  +2.2  32  +20  +38  опасность
простуды 
1019.4  888.7         
20:56 19.06   16 км    ясно  +20.6  +2.8  31  +21  +47  комфорт  1019.1  888.4         

 

Местоположение метеостанции Sexton Summit: широта 42.6003 долгота -123.3642 высота над уровнем моря 1170 м.

В архиве по умолчанию представлена погода в Секстон Маунтин Пасс за последние 1-2 суток. Обновление информации о фактической погоде в базе происходит ежечасно! Архивные данные за месяц целиком и за предыдущие месяцы Вы можете получить, выбрав интересующий диапазон дат из раскрывающегося списка и нажав кнопку "Ввод!".

Внимание! Архив погоды МЕТАР в базе сайта хранится не более 60 дней. Нет смысла пытаться выбрать более раннюю дату.

Внимание! Время в таблицах - всемирное. Для получения местного времени необходимо прибавить поправку, которая в Секстон Маунтин Пасс равна -8 ч.

Ветер - указаны скорость ветра в м/с и направление, откуда дует ветер: С - северный, СВ - северо-восточный, В - восточный, ЮВ - юго-восточный, Ю - южный, ЮЗ - юго-западный, З - западный, СЗ - северо-западный.
Видимость - горизонтальная дальность видимости в метрах или километрах. При видимости от 1 до 10 км при отсутствии осадков обычно наблюдается дымка, при ухудшении видимости до 1 км и менее - туман. В сухую погоду видимость может ухудшаться дымом, пылью или мглою.
Атмосферные явления - указаны явления, наблюдавшиеся в указанный момент времени.
Облачность - указаны через наклонную черту верхняя и нижняя облачность в баллах и высота нижней границы облаков в метрах. Внимание: облачность, как и прочие метеорологические величины в США измеряются автоматическими метеостанциями. Указанные значения в баллах носят условный характер и показывают процент времени, в течение которого, в среднем, лазерный луч высотомера отражался от облаков обратно.
T - Температура воздуха - температура, измеренная на высоте 2 м над землей.
Td - Температура точки росы - температура, при понижении до которой содержащийся в воздухе водяной пар достигнет насыщения.
f - Относительная влажность воздуха - влажноcть воздуха, измеренная на высоте 2 м над землей.
Te - Эффективная температура - температура, которую ощущает одетый по сезону человек в тени. Характеристика душности погоды. При расчете учитывается влияние влажности воздуха и скорости ветра на теплоощущения человека.
Tes - Эффективная температура на солнце - температура, которую ощущает человек, с поправкой на солнечный нагрев. Характеристика знойности погоды. Зависит от высоты солнца над горизонтом, облачности и скорости ветра. Ночью, в пасмурную погоду, а также при ветре 12 м/с и более поправка равна нулю.
P - Атмосферное давление - приведенное к уровню моря атмосферное давление.
Po - Атмосферное давление - измеренное на уровне метеостанции атмосферное давление.
Tmin - Минимальная температура - минимум температуры воздуха на высоте 2 м над землей.
Tmax - Максимальная температура - максимум температуры воздуха на высоте 2 м над землей.
R - Количество осадков - Количество выпавших осадков за 3 или 6 часов, мм.
SD - Снежный покров - Высота снежного покрова, см.